[Date Prev][Date Next][Thread Prev][Thread Next] - [Date Index][Thread Index][Author Index]

2 Line ISS Keps 11-15



ISS
1 25544U 98067A   03319.19577258  .00018630  00000-0  19801-3 0  7741
2 25544  51.6310 338.7368 0006302 136.2461 351.8574 15.64071371284608


----
Via the sarex mailing list at AMSAT.ORG courtesy of AMSAT-NA.
To unsubscribe, send "unsubscribe sarex" to Majordomo@amsat.org



AMSAT Top AMSAT Home